Home   Weather   Nairobi   Past weeks
Flag for Kenya

Past Weather in Nairobi, Kenya — Yesterday and Last 2 Weeks

Now
64 °F

Broken clouds.


Feels Like: 64 °F
Forecast: 80 / 60 °F
Wind: 9 mph from East

Location: Nairobi / Wilson

Current Time: Apr 6, 2020 at 8:45:25 am

Latest Report: Apr 6, 2020 at 8:00 am


Visibility: N/A

Pressure: 30.21 "Hg (24.80 "Hg at 1680m altitude)

Humidity: 94%

Dew Point: 63 °F

Location of NairobiLocation

Past Weather in Nairobi — Graph

°F

Nairobi Temperature Yesterday

Maximum temperature yesterday: 79 °F (at 2:00 pm)
Minimum temperature yesterday: 63 °F (at 6:00 am)
Average temperature yesterday: 71 °F

High & Low Weather Summary for the Past Weeks

 TemperatureHumidityPressure
High81 °F (Mar 23, 2:00 pm)100% (Mar 27, 3:00 am)30.24 "Hg (Mar 27, 3:00 am)
Low59 °F (Mar 23, 6:00 am)34% (Mar 23, 2:00 pm)29.95 "Hg (Mar 26, 3:00 pm)
Average71 °F71%30.12 "Hg
* Reported Mar 22 7:00 am — Apr 6 7:00 am, Nairobi. Weather by CustomWeather, © 2020

Note: Actual official high and low records may vary slightly from our data, if they occured in-between our weather recording intervals... More about our weather records

Nairobi Weather History for the Previous 24 Hours

Scroll right to see more
 ConditionsComfort  
Time TempWeatherWind HumidityBarometerVisibility
7:00 am
Mon, Apr 6
63 °FBroken clouds.No wind100%30.18 "HgN/A
4:00 am63 °FLight rain. Partly cloudy.No wind94%30.15 "HgN/A
2:00 am64 °FRain. Partly cloudy.No wind94%30.15 "HgN/A
12:00 am66 °FPassing clouds.N/A88%30.21 "HgN/A
10:00 pm
Sun, Apr 5
70 °FPassing clouds.12 mph73%30.21 "HgN/A
9:00 pm70 °FPassing clouds.9 mph69%30.18 "HgN/A
8:00 pm72 °FPassing clouds.12 mph65%30.15 "HgN/A
7:00 pm73 °FPassing clouds.12 mph57%30.12 "HgN/A
6:00 pm75 °FScattered clouds.17 mph54%30.12 "HgN/A
5:00 pm77 °FScattered clouds.12 mph51%30.09 "HgN/A
4:00 pm79 °FScattered clouds.12 mph45%30.09 "HgN/A
3:00 pm79 °FScattered clouds.17 mph45%30.12 "HgN/A
2:00 pm79 °FPartly sunny.12 mph48%30.15 "HgN/A
1:00 pm77 °FPartly sunny.17 mph51%30.18 "HgN/A
12:00 pm75 °FPartly sunny.12 mph54%30.21 "HgN/A
11:00 am72 °FPartly sunny.9 mph61%30.24 "HgN/A
10:00 am70 °FPartly sunny.6 mph69%30.24 "HgN/A
9:00 am68 °FPartly sunny.9 mph78%30.24 "HgN/A
8:00 am64 °FPartly sunny.12 mph94%30.21 "HgN/A
Weather by CustomWeather, © 2020

See weather overview

Advertising